Regional Weather Roundup
Issued by NWS

Home | Current Version | Previous Version | Graphics & Text | Print | Product List | Glossary On
Versions: 1 2 3 4 5 6 7 8 9 10 11 12 13 14 15 16 17 18 19 20 21 22 23 24 25 26 27 28
000
ASUS45 KTFX 222110
RWRMT
MONTANA REGIONAL WEATHER ROUNDUP
NATIONAL WEATHER SERVICE GREAT FALLS MT
200 PM MST WED FEB 22 2017

NOTE: "FAIR" INDICATES FEW OR NO CLOUDS BELOW 12000 FEET WITH NO
SIGNIFICANT WEATHER AND/OR OBSTRUCTIONS TO VISIBILITY.

MTZ001>007-043-222200-
WEST OF THE DIVIDE

CITY           SKY/WX    TMP DP  RH WIND       PRES   REMARKS
KALISPELL      PTSUNNY   38  26  62 CALM      29.94F
MISSOULA       PTSUNNY   39  28  64 N12       29.93F WCI  32
BUTTE          CLOUDY    32  22  66 SW5       29.84F
MULLAN PASS    FOG       28  25  88 NW5       29.86F VSB 1/2
ANACONDA         N/A     36  21  55 N12       29.86S WCI  27
DEER LODGE       N/A     30  28  93 S3        29.91S
EUREKA           N/A     34  30  86 CALM      29.97F
HAMILTON         N/A     36  27  69 NW17      29.90S WCI  25
PLAINS           N/A     40  31  70 CALM      29.97F
RONAN            N/A     41  30  65 CALM      29.99F
$$

MTZ008-052>055-222200-
SOUTHWEST MONTANA

CITY           SKY/WX    TMP DP  RH WIND       PRES   REMARKS
BOZEMAN        MOSUNNY   35  28  75 NE8       29.87F WCI  29
DILLON         CLOUDY    38  16  40 W8        29.82F
W YELLOWSTONE  CLOUDY    28  18  64 SW13G21   29.84F WCI  18
ENNIS          MOSUNNY   34  25  69 NE5       29.89F
THREE FORKS      N/A     39  39 100 CALM      29.88F
$$

MTZ009-010-012-014-046-048-049-054-222200-
EAST SLOPES AND CENTRAL MONTANA

CITY           SKY/WX    TMP DP  RH WIND       PRES   REMARKS
CUT BANK       CLOUDY    29  26  89 N15       29.91F FOG     WCI  18
GREAT FALLS    CLOUDY    37  25  61 N10       29.89S WCI  30
HELENA         PTSUNNY   43  21  41 W9        29.87F
AUGUSTA        PTSUNNY   35  25  67 N16       29.87S WCI  25
CHOTEAU          N/A     34  28  80 N15       29.91S WCI  24
CONRAD           N/A     33  31  93 W12       29.94S WCI  24
RAYNESFORD     LGT RAIN  34  25  70 SW6       29.88S WCI  29
$$

MTZ011-013-016-021-045-047-050-051-222200-
NORTH CENTRAL MONTANA

CITY           SKY/WX    TMP DP  RH WIND       PRES   REMARKS
HAVRE          CLOUDY    37  28  70 E13       29.92S WCI  29
LEWISTOWN      CLOUDY    33  29  85 NW9       29.87R WCI  25
N BAR RANCH    SNOW      30  28  93 CALM      29.88R VSB 1/4
CHINOOK          N/A     36  27  69 E9        29.94S WCI  29
FORT BENTON      N/A     37  30  75 MISG      29.92S
GEYSER         CLOUDY    36  27  70 N7        29.87S WCI  30
JUDITH GAP     LGT SNOW  29  28  96 N15       29.85S VSB 5/8 WCI  17
STANFORD       LGT RAIN  31  28  89 N14       29.86S WCI  21
$$

MTZ017>020-022>027-061-062-222200-
NORTHEAST MONTANA

CITY           SKY/WX    TMP DP  RH WIND       PRES   REMARKS
GLASGOW        CLOUDY    31  28  89 S7        29.95S WCI  24
JORDAN           N/A     34  29  82 N6        29.91F WCI  29
SIDNEY         CLOUDY    31  27  85 N10       29.94R WCI  22
WOLF POINT     CLOUDY    35  24  64 NE3       29.96S
PLENTYWOOD       N/A     34  23  64 NW8       29.93S WCI  27
POPLAR           N/A     32  25  74 N6        29.96S WCI  26
SCOBEY           N/A     32  17  54 CALM      29.92
$$

MTZ028>42-056>058-222200-
SOUTHCENTRAL AND SOUTHEAST MONTANA

CITY           SKY/WX    TMP DP  RH WIND       PRES   REMARKS
BAKER          CLOUDY    32  31  96 N12       29.88S WCI  23
BILLINGS       PTSUNNY   35  33  92 E7        29.86F WCI  29
LIVINGSTON     PTSUNNY   38  25  59 SW12      29.83F WCI  30
MILES CITY     CLOUDY    35  34  96 N7        29.90S WCI  29
BIG TIMBER     SUNNY     41  18  38 W16G25    29.84F
FORSYTH          N/A     36  30  80 N3        29.89F
LAUREL           N/A     43  25  49 NW6       29.85F
$$

REGIONAL REPORTS...DAKOTAS

CITY           SKY/WX    TMP DP  RH WIND       PRES   REMARKS
WILLISTON      CLOUDY    33  24  69 N8        29.93R WCI  26
MINOT          CLOUDY    34  26  72 N9        29.88R WCI  27
DICKINSON      LGT SNOW  30  27  88 N10       29.85R FOG     WCI  21
BEACH            N/A    N/A N/A N/A MISG        N/A
CROSBY         PTSUNNY   34  28  80 N13       29.94S WCI  25
TIOGA            N/A     32  27  80 N10       29.91S WCI  24
WATFORD CITY   CLOUDY    30  27  86 N7        29.92R WCI  23
BISMARCK       LGT SNOW  35  32  88 N17       29.86R FOG     WCI  25
GRAND FORKS    CLOUDY    35  24  64 N20       29.81R WCI  24
FARGO          LGT SNOW  34  33  96 N21       29.75R FOG     WCI  22
BUFFALO SD       N/A     35  30  82 N15       29.78R WCI  25
RAPID CITY     SUNNY     56  17  21 NW24G32   29.74S
$$

REGIONAL REPORTS...WYOMING/IDAHO/WASHINGTON

CITY           SKY/WX    TMP DP  RH WIND       PRES   REMARKS
GILLETTE         N/A    N/A N/A N/A MISG      29.80F
SHERIDAN       CLOUDY    40  29  64 E8        29.84F
BUFFALO WY     FLURRIES  36  28  73 N16G26    29.82F WCI  26
CODY           PTSUNNY   39  21  48 N10       29.83F
YELLOWSTONE LA   N/A     24  17  74 VRB5      29.83F
IDAHO FALLS    MOSUNNY   35  27  72 NW7       29.88F WCI  29
SALMON         CLOUDY    39  27  60 N7        29.85F
BOISE          CLOUDY    39  28  64 NW8       29.92F
SPOKANE        PTSUNNY   33  28  81 SE5       30.02F
$$

REGIONAL REPORTS...ALBERTA

CITY           SKY/WX    TMP DP  RH WIND       PRES   REMARKS
EDMONTON       CLOUDY    27  16  63 NW9       30.01S WCI  17
CALGARY        LGT SNOW  27  23  86 N9        29.96S WCI  17
LETHBRIDGE     PTSUNNY   34  28  80 N10       29.94S WCI  26
MEDICINE HAT   LGT SNOW  36  28  75 CALM      29.94R
WATERTON GATE    N/A     30  23  74 N3          N/A
MILK RIVER       N/A     34  30  86 NW10        N/A  WCI  26
$$

REGIONAL REPORTS...SASKATCHEWAN

CITY           SKY/WX    TMP DP  RH WIND       PRES   REMARKS
SWIFT CURRENT  CLOUDY    36  27  69 NW9       29.91S WCI  29
REGINA         PTSUNNY   36  28  75 W12       29.92R WCI  27
SASKATOON      FLURRIES  27  23  86 N13       29.99R WCI  16
CYPRESS HILLS    N/A     30  18  59 S5          N/A
VAL MARIE        N/A     37  23  56 E2          N/A
ROCKGLEN         N/A     32  21  64 SE1         N/A
ASSINIBOIA       N/A     27  21  80 N10         N/A  WCI  17
$$




USA.gov is the U.S. government's official web portal to all federal, state and local government web resources and services.